Location: Beaufort Park
(39.1418°N, 76.9433°W)
Time: 23:09:16
(UTC+00:00)

NOSS 3-3 (A) - Pass Details

Date: 29 October 2020
Orbit: 819 x 1393 km, 63.4° (Epoch: 29 November)

Event Time Altitude Azimuth Distance (km) Brightness Sun altitude
Rises 23:23:33 0° 215° (SW) 3,361 7.5 -14.8°
Reaches altitude 10° 23:25:54 10° 217° (SW) 2,461 6.7 -15.3°
Maximum altitude 23:31:33 79° 304° (NW) 922 3.9 -16.4°
Drops below altitude 10° 23:37:56 10° 32° (NNE) 2,763 6.0 -17.6°
Enters shadow 23:38:31 - 32° (NNE) 2,978 6.2 -17.7°
